TimeEST,TemperatureF,Dew PointF,Humidity,Sea Level PressureIn,VisibilityMPH,Wind Direction,Wind SpeedMPH,Gust SpeedMPH,PrecipitationIn,Events,Conditions,WindDirDegrees,DateUTC
12:54 AM,18.0,7.0,62,30.34,10.0,Calm,Calm,-,N/A,,Clear,0,2013-02-07 05:54:00
1:54 AM,17.1,7.0,65,30.37,10.0,Calm,Calm,-,N/A,,Clear,0,2013-02-07 06:54:00
2:54 AM,16.0,9.0,74,30.38,10.0,Calm,Calm,-,N/A,,Clear,0,2013-02-07 07:54:00
3:54 AM,15.1,8.1,74,30.40,10.0,Calm,Calm,-,N/A,,Clear,0,2013-02-07 08:54:00
4:54 AM,16.0,7.0,68,30.42,10.0,Calm,Calm,-,N/A,,Clear,0,2013-02-07 09:54:00
5:54 AM,14.0,10.0,84,30.43,10.0,Calm,Calm,-,N/A,,Clear,0,2013-02-07 10:54:00
6:54 AM,15.1,9.0,77,30.45,10.0,Calm,Calm,-,N/A,,Clear,0,2013-02-07 11:54:00
7:54 AM,18.0,12.0,78,30.48,10.0,Calm,Calm,-,N/A,,Mostly Cloudy,0,2013-02-07 12:54:00
8:54 AM,19.9,12.0,71,30.49,10.0,Calm,Calm,-,N/A,,Clear,0,2013-02-07 13:54:00
9:54 AM,21.9,10.9,63,30.51,10.0,Calm,Calm,-,N/A,,Scattered Clouds,0,2013-02-07 14:54:00
10:54 AM,25.0,9.0,51,30.50,10.0,Calm,Calm,-,N/A,,Scattered Clouds,0,2013-02-07 15:54:00
11:54 AM,27.0,9.0,47,30.48,10.0,Calm,Calm,-,N/A,,Clear,0,2013-02-07 16:54:00
12:54 PM,28.0,10.0,47,30.45,10.0,East,5.8,-,N/A,,Scattered Clouds,80,2013-02-07 17:54:00
1:54 PM,28.9,9.0,43,30.44,10.0,Calm,Calm,-,N/A,,Mostly Cloudy,0,2013-02-07 18:54:00
2:54 PM,28.9,7.0,40,30.43,10.0,Calm,Calm,-,N/A,,Overcast,0,2013-02-07 19:54:00
3:54 PM,28.9,8.1,41,30.41,10.0,ESE,5.8,-,N/A,,Overcast,110,2013-02-07 20:54:00
4:54 PM,30.0,8.1,40,30.40,10.0,East,4.6,-,N/A,,Overcast,100,2013-02-07 21:54:00
5:54 PM,28.0,8.1,43,30.41,10.0,Calm,Calm,-,N/A,,Partly Cloudy,0,2013-02-07 22:54:00
6:54 PM,23.0,14.0,68,30.41,10.0,Calm,Calm,-,N/A,,Clear,0,2013-02-07 23:54:00
7:54 PM,23.0,14.0,68,30.41,10.0,Calm,Calm,-,N/A,,Clear,0,2013-02-08 00:54:00
8:54 PM,19.9,14.0,78,30.41,10.0,Calm,Calm,-,N/A,,Mostly Cloudy,0,2013-02-08 01:54:00
9:54 PM,21.9,16.0,78,30.40,10.0,Calm,Calm,-,N/A,,Overcast,0,2013-02-08 02:54:00
10:54 PM,25.0,15.1,66,30.38,10.0,NNE,4.6,-,N/A,,Overcast,20,2013-02-08 03:54:00
11:54 PM,26.1,14.0,60,30.35,10.0,NNE,8.1,-,N/A,,Overcast,20,2013-02-08 04:54:00